Date String (YYYY-MM-DD hh:mm:ss) UTC,Instrument flags,absolute air pressure of the measurement (hPa),sample flow rate (lpm),inlet stack bypass flow (lpm),air temperature of the measurement (°C),ambient temperature measured by the external sensor (°C),aerosol sample conditioner tube jacket temperature (°C),OPC LED temperature (°C),internal box temperature (°C),relative humidity of the measurement (%),span deviation,mass concentration of particles derived from Lorenz-Mie calculation of OPC scattering (μg/m³),mass concentration of particles derived from Lorenz-Mie calculation of OPC scattering (μg/m³),mass concentration of particles derived from Lorenz-Mie calculation of OPC scattering (μg/m³)
DateTimeUTC,F1_M11,P_M11,Q1_M11,Q2_M11,T1_M11,T2_M11,T3_M11,T4_M11,T5_M11,U1_M11,ZSPAN_M11,X2_M11,X0_M11,X1_M11
2023-08-14 10:00:00,SystemResetWarning,0840.4,5.00,000.00,030.1,028.7,000.0,038.7,031.6,21.4,0000.0,0004.13,0009.86,0003.57
2023-08-14 10:01:00,SystemResetWarning,0840.4,5.01,000.00,030.1,028.8,000.0,038.7,031.6,21.4,0000.8,0004.12,0009.46,0003.57
2023-08-14 10:02:00,SystemResetWarning,0840.4,5.00,000.00,030.1,028.8,000.0,038.7,031.6,21.1,0000.2,0004.14,0009.36,0003.58
2023-08-14 10:03:00,SystemResetWarning,0840.3,5.00,000.00,030.1,028.8,000.0,038.7,031.7,21.0,0000.0,0004.13,0009.18,0003.58
2023-08-14 10:04:00,SystemResetWarning,0840.4,4.98,000.00,030.1,027.3,000.0,038.6,031.5,21.1,0000.0,0004.14,0009.23,0003.58
2023-08-14 10:05:00,SystemResetWarning,0840.3,5.02,000.00,030.0,025.6,000.0,038.5,031.1,21.3,0000.0,0004.12,0009.14,0003.58
2023-08-14 10:06:00,SystemResetWarning,0840.2,5.01,000.00,029.9,025.3,000.0,038.4,030.8,21.6,0000.0,0004.12,0009.18,0003.60
2023-08-14 10:07:00,SystemResetWarning,0840.2,4.99,000.00,029.7,025.6,000.0,038.4,030.7,21.9,0000.0,0004.09,0009.69,0003.61
2023-08-14 10:08:00,SystemResetWarning,0840.2,5.00,000.00,029.7,026.0,000.0,038.4,030.8,22.1,0000.0,0004.06,0010.13,0003.61
2023-08-14 10:09:00,SystemResetWarning,0840.2,4.99,000.00,029.6,026.4,000.0,038.4,030.9,22.0,0000.0,0004.06,0010.30,0003.61
2023-08-14 10:10:00,SystemResetWarning,0840.2,5.00,000.00,029.6,026.7,000.0,038.4,031.0,21.9,0000.0,0004.07,0010.76,0003.61
2023-08-14 10:11:00,SystemResetWarning,0840.2,5.00,000.00,029.6,027.1,000.0,038.4,031.0,21.7,0000.0,0004.11,0011.23,0003.62
2023-08-14 10:12:00,SystemResetWarning,0840.2,5.00,000.00,029.6,027.3,000.0,038.3,031.1,21.4,0000.0,0004.14,0011.06,0003.62
2023-08-14 10:13:00,SystemResetWarning,0840.2,5.01,000.00,029.6,027.5,000.0,038.3,031.1,21.3,0000.0,0004.17,0010.86,0003.62
2023-08-14 10:14:00,SystemResetWarning,0840.3,5.00,000.00,029.6,027.7,000.0,038.3,031.1,21.2,0000.0,0004.21,0011.14,0003.62
2023-08-14 10:15:00,SystemResetWarning,0840.3,4.99,000.00,029.6,027.8,000.0,038.3,031.1,21.1,0000.0,0004.21,0011.19,0003.63
2023-08-14 10:16:00,SystemResetWarning,0840.3,5.00,000.00,029.6,028.0,000.0,038.3,031.1,21.2,0000.0,0004.21,0011.86,0003.62
2023-08-14 10:17:00,SystemResetWarning,0840.3,5.00,000.00,029.6,028.1,000.0,038.3,031.2,21.2,0000.0,0004.23,0012.03,0003.61
2023-08-14 10:18:00,SystemResetWarning,0840.2,5.00,000.00,029.6,028.1,000.0,038.3,031.2,21.2,-000.0,0004.27,0011.78,0003.61
2023-08-14 10:19:00,SystemResetWarning,0840.2,5.00,000.00,029.6,028.2,000.0,038.3,031.2,21.2,-000.1,0004.28,0011.06,0003.61
2023-08-14 10:20:00,SystemResetWarning,0840.2,5.00,000.00,029.7,028.3,000.0,038.3,031.2,21.4,-000.2,0004.27,0010.81,0003.61
2023-08-14 10:21:00,SystemResetWarning,0840.2,5.00,000.00,029.7,028.3,000.0,038.3,031.2,21.4,-000.5,0004.29,0011.10,0003.60
2023-08-14 10:22:00,SystemResetWarning,0840.2,5.00,000.00,029.7,028.4,000.0,038.3,031.3,21.4,-000.6,0004.29,0011.33,0003.59
2023-08-14 10:23:00,SystemResetWarning,0840.2,5.00,000.00,029.7,028.4,000.0,038.3,031.3,21.4,0000.0,0004.27,0011.47,0003.58
2023-08-14 10:24:00,SystemResetWarning,0840.2,4.99,000.00,029.7,028.4,000.0,038.3,031.3,21.5,0000.5,0004.27,0011.83,0003.58
2023-08-14 10:25:00,SystemResetWarning,0840.2,4.99,000.00,029.7,028.5,000.0,038.3,031.3,21.8,0000.8,0004.24,0012.08,0003.58
2023-08-14 10:26:00,SystemResetWarning,0840.2,5.00,000.00,029.8,028.5,000.0,038.3,031.3,21.9,0001.1,0004.23,0011.75,0003.57
2023-08-14 10:27:00,SystemResetWarning,0840.2,5.01,000.00,029.8,028.5,000.0,038.4,031.3,21.9,0001.3,0004.21,0011.03,0003.57
2023-08-14 10:28:00,SystemResetWarning,0840.2,5.01,000.00,029.8,028.5,000.0,038.4,031.4,22.0,0001.3,0004.20,0010.87,0003.57
2023-08-14 10:29:00,SystemResetWarning,0840.2,5.00,000.00,029.8,028.5,000.0,038.4,031.4,22.1,0001.1,0004.16,0010.40,0003.56
2023-08-14 10:30:00,SystemResetWarning,0840.1,4.99,000.00,029.8,028.6,000.0,038.4,031.4,22.2,0001.4,0004.19,0010.09,0003.56
2023-08-14 10:31:00,SystemResetWarning,0840.2,4.99,000.00,029.8,028.6,000.0,038.4,031.4,22.4,0001.6,0004.18,0010.02,0003.56
2023-08-14 10:32:00,SystemResetWarning,0840.2,5.00,000.00,029.8,028.6,000.0,038.4,031.4,22.4,0001.7,0004.16,0009.35,0003.56
2023-08-14 10:33:00,SystemResetWarning,0840.2,5.00,000.00,029.9,028.6,000.0,038.4,031.4,22.4,0001.9,0004.13,0008.69,0003.57
2023-08-14 10:34:00,SystemResetWarning,0840.1,5.00,000.00,029.9,028.6,000.0,038.4,031.4,22.5,0001.8,0004.13,0008.38,0003.59
2023-08-14 10:35:00,SystemResetWarning,0840.2,5.00,000.00,029.9,028.6,000.0,038.5,031.4,22.5,0001.6,0004.14,0008.31,0003.60
2023-08-14 10:36:00,SystemResetWarning,0840.2,5.00,000.00,029.9,028.7,000.0,038.5,031.5,22.6,0001.5,0004.12,0007.61,0003.61
2023-08-14 10:37:00,SystemResetWarning,0840.2,5.00,000.00,029.9,028.7,000.0,038.5,031.5,22.6,0001.6,0004.12,0007.60,0003.61
2023-08-14 10:38:00,SystemResetWarning,0840.2,5.00,000.00,029.9,028.7,000.0,038.5,031.5,22.7,0001.8,0004.15,0007.68,0003.62
2023-08-14 10:39:00,SystemResetWarning,0840.2,5.00,000.00,029.9,028.7,000.0,038.5,031.5,22.7,0001.6,0004.15,0007.62,0003.62
2023-08-14 10:40:00,SystemResetWarning,0840.2,5.00,000.00,029.9,028.7,000.0,038.5,031.5,22.7,0001.9,0004.14,0007.74,0003.62
2023-08-14 10:41:00,SystemResetWarning,0840.2,5.00,000.00,029.9,028.7,000.0,038.5,031.5,22.8,0002.1,0004.11,0007.81,0003.61
2023-08-14 10:42:00,SystemResetWarning,0840.2,5.01,000.00,030.0,028.7,000.0,038.5,031.5,22.8,0001.8,0004.09,0007.76,0003.61
2023-08-14 10:43:00,SystemResetWarning,0840.2,4.99,000.00,030.0,028.7,000.0,038.6,031.5,22.9,0001.8,0004.07,0007.71,0003.61
2023-08-14 10:44:00,SystemResetWarning,0840.2,4.98,000.00,030.0,028.7,000.0,038.6,031.5,22.9,0001.8,0004.06,0007.67,0003.60
2023-08-14 10:45:00,SystemResetWarning,0840.2,5.00,000.00,030.0,028.7,000.0,038.6,031.5,22.9,0002.1,0004.08,0007.73,0003.59
2023-08-14 10:46:00,SystemResetWarning,0840.2,5.00,000.00,030.0,028.7,000.0,038.6,031.5,22.8,0002.2,0004.04,0007.59,0003.59
2023-08-14 10:47:00,SystemResetWarning,0840.2,5.00,000.00,030.0,028.7,000.0,038.6,031.5,22.7,0002.3,0004.05,0007.56,0003.58
2023-08-14 10:48:00,SystemResetWarning,0840.2,5.00,000.00,030.0,028.7,000.0,038.6,031.5,22.6,0002.1,0004.05,0007.58,0003.58
2023-08-14 10:49:00,SystemResetWarning,0840.2,5.00,000.00,030.0,028.7,000.0,038.6,031.6,22.5,0002.1,0004.06,0007.64,0003.59
2023-08-14 10:50:00,SystemResetWarning,0840.2,5.00,000.00,030.0,028.7,000.0,038.6,031.6,22.4,0001.9,0004.05,0007.94,0003.60
2023-08-14 10:51:00,SystemResetWarning,0840.2,5.00,000.00,030.0,028.7,000.0,038.6,031.6,22.3,0002.0,0004.04,0007.95,0003.61
2023-08-14 10:52:00,SystemResetWarning,0840.2,5.00,000.00,030.0,028.7,000.0,038.7,031.6,22.2,0002.0,0004.07,0007.84,0003.63
2023-08-14 10:53:00,SystemResetWarning,0840.2,5.00,000.00,030.0,028.7,000.0,038.7,031.6,22.2,0001.9,0004.11,0008.25,0003.64
2023-08-14 10:54:00,SystemResetWarning,0840.2,5.00,000.00,030.0,028.7,000.0,038.7,031.6,22.2,0001.8,0004.13,0008.47,0003.66
2023-08-14 10:55:00,SystemResetWarning,0840.2,5.00,000.00,030.1,028.7,000.0,038.7,031.6,22.1,0002.1,0004.15,0008.49,0003.68
2023-08-14 10:56:00,SystemResetWarning,0840.2,5.00,000.00,030.1,028.7,000.0,038.7,031.6,22.1,0002.3,0004.16,0008.43,0003.70
2023-08-14 10:57:00,SystemResetWarning,0840.2,5.00,000.00,030.1,028.7,000.0,038.7,031.6,22.0,0002.3,0004.19,0008.46,0003.73
2023-08-14 10:58:00,SystemResetWarning,0840.2,5.00,000.00,030.1,028.7,000.0,038.7,031.6,22.0,0002.1,0004.19,0008.44,0003.74
2023-08-14 10:59:00,SystemResetWarning,0840.2,5.00,000.00,030.1,028.7,000.0,038.7,031.6,21.9,0002.4,0004.22,0008.41,0003.78
